STARLINK-2102 (47382 NORAD) Tracking and Keplerian Element Data
This shows tracking and keplerian element data for the satellite.
Feedback or suggestion? Click here.
Element | Value |
Catalog | 47382 |
Name | STARLINK-2102 |
Epoch Orbit | 177 |
Epoch Day | 101.91668981 |
Epoch Year | 2021 |
RAAN | 171.9517 |
Inclination | 53.0535 |
Eccentricity | 0.0004194 |
Argument of Perigee | 15.8363 |
Mean Anonmoly | 140.1225 |
Mean Motion | 15.6280278 |
Decay Rate | -0.00021692 |
L1 | 1 47382U 21005AK 21101.91668981 -.00021692 00000-0 -23110-3 0 9997 |
L2 | 2 47382 53.0535 171.9517 0004194 15.8363 140.1225 15.62802780 1771 |
Live tracking and technical data element details for STARLINK-2102 (NORAD 47382). STARLINK-2102 can be tracked NOW for your location showing map with azimuth and elevation plus other details from your city location.
Track the satellite on the map from your city or location and see movement details for azimuth, elevation, latitude, longitude, range, height, and movement on the map or in text.
IsCatalogInMostPopularTable: catalog: 47382, numindb: 13
Update: records affected: 1
GetName: 47382 STARLINK-2102
Hit Count: updated at: Tue, 13 Apr 2021 05:45:07 GMT